www.pogodaiklimat.ru

Погода и климат >> Архив погоды >> Норвегия >> Фагернес аэропорт


ПОГОДА в Фагернес аэропорту

  • Прогноз погоды в Фагернес аэропорту
  • Монитор погоды в Фагернес аэропорту

АРХИВ ПОГОДЫ в Фагернес аэропорту

Время (UTC), дата Ветер
(напр.,м/с)
 
Видим.   Явления Облачность Т
(С)
Тd
(С)
f
(%)
Тe
(С)
Тes
(С)
Комфортность P
(гПа)
Po
(гПа)
Тmin
(С)
Tmax
(С)
R
(мм)
R24
(мм)
S
(см)
19 11.09 Ю 2
{6}
н/о н/о +8.6 +6.9 89 +7 +7 1003.1 909.1
20 11.09 ЮЗ 2
{5}
н/о н/о +8.0 +6.3 89 +6 +6 1003.7 909.4
21 11.09 ЮЗ 2
{5}
н/о н/о +8.0 +5.3 83 +6 +6 1004.2 909.9
22 11.09 З 3
{5}
н/о н/о +7.8 +4.4 79 +5 +5 1004.8 910.3
23 11.09 З 3
{5}
н/о н/о +7.2 +4.3 82 +4 +4 1005.4 910.7
00 12.09 СЗ 3
{6}
н/о н/о +6.5 +3.8 83 +3 +3 1005.9 911.0
01 12.09 штиль 0
{2}
н/о н/о +5.4 +3.4 87 +4 +4 1007.1 911.7
02 12.09 ЮЗ 2
{5}
н/о н/о +7.0 +2.7 74 +5 +5 1006.8 912.0
03 12.09 ЮЗ 2
{5}
н/о н/о +6.8 +2.9 76 +5 +5 1007.5 912.5
04 12.09 штиль 0
{3}
н/о н/о +6.9 +3.0 76 +6 +6 1007.8 912.8
05 12.09 Ю 2
{6}
н/о н/о +6.4 +3.4 81 +4 +4 1008.5 913.2
06 12.09 С 1
{6}
н/о н/о +6.7 +3.7 81 +6 +6 1008.7 913.5 +5.0 +8.7
07 12.09 Ю 3
{5}
н/о н/о +8.2 +3.7 73 +6 +6 1008.8 914.1
08 12.09 Ю 3
{5}
н/о н/о +8.4 +4.2 75 +6 +6 1009.0 914.4
09 12.09 ЮЗ 6
{8}
н/о н/о +10.4 +5.0 69 +7 +7 1008.5 914.5
10 12.09 ЮЗ 4
{8}
н/о н/о +10.7 +4.2 64 +8 +8 1008.6 914.7
11 12.09 ЮЗ 6
{13}
н/о н/о +11.4 +2.5 54 +9 +9 1008.4 914.8
12 12.09 ЮЗ 6
{16}
н/о н/о +11.5 +3.1 56 +9 +9 1008.9 915.2
13 12.09 ЮЗ 6
{13}
н/о н/о +12.6 +3.6 54 +10 +10 1008.6 915.3
14 12.09 ЮЗ 5
{12}
н/о н/о +10.9 +2.5 56 +8 +8 1009.2 915.4
15 12.09 ЮЗ 6
{10}
н/о н/о +10.5 +3.1 60 +8 +8 1009.8 915.7
16 12.09 ЮЗ 6
{9}
н/о н/о +10.1 +2.9 61 +7 +7 1009.7 915.5
17 12.09 СЗ 4
{8}
н/о н/о +7.7 +4.1 78 +4 +4 1010.8 915.8
18 12.09 СЗ 2
{13}
н/о н/о +7.0 +3.6 79 +5 +5 1011.2 915.9 +6.5 +12.7
19 12.09 З 2
{5}
н/о н/о +5.8 +2.8 81 +3 +3 1011.3 915.6
20 12.09 СЗ 2
{5}
н/о н/о +4.9 +2.1 82 +2 +2 1011.5 915.5
21 12.09 З 4
{4}
н/о н/о +5.9 +1.8 75 +2 +2 1011.4 915.8
22 12.09 СЗ 5
{7}
н/о н/о +5.6 +1.9 77 +1 +1 1011.5 915.8
23 12.09 З 5
{9}
н/о н/о +5.7 +1.5 74 +1 +1 1011.6 915.9
00 13.09 СЗ 2
{9}
н/о н/о +4.5 +1.2 79 +2 +2 1012.7 916.5
01 13.09 З 7
{12}
н/о н/о +4.8 +0.8 75 -1 -1 1012.7 916.5
02 13.09 СЗ 3
{8}
н/о н/о +4.0 +0.4 77 0 0 1013.7 917.2
03 13.09 СЗ 7
{11}
н/о н/о +4.3 +0.3 75 -1 -1 1013.8 917.4
04 13.09 З 6
{12}
н/о н/о +4.2 +0.2 75 -1 -1 1014.4 917.9
05 13.09 СЗ 4
{8}
н/о н/о +4.2 +0.4 76 0 0 1015.2 918.6
06 13.09 СЗ 4
{12}
н/о н/о +4.7 +0.1 72 +1 +1 1015.6 919.2 +3.7 +7.1
07 13.09 СЗ 5
{8}
н/о н/о +5.8 -0.2 65 +2 +2 1015.9 919.7
08 13.09 СЗ 5
{11}
н/о н/о +7.1 +0.3 62 +3 +3 1016.0 920.3
09 13.09 СЗ 7
{12}
н/о н/о +7.8 -0.2 57 +4 +4 1016.3 920.7
10 13.09 СЗ 7 н/о н/о +8.9 -0.1 53 +5 +5 1016.6 921.3
11 13.09 СЗ 9 н/о н/о +9.2 +0.4 54 +5 +5 1017.0 921.9
12 13.09 СЗ 7
{15}
н/о н/о +9.0 +0.2 54 +5 +5 1017.8 922.5
13 13.09 СЗ 7 н/о н/о +9.4 +0.1 52 +6 +6 1018.3 923.1
14 13.09 СЗ 5 н/о н/о +7.7 -0.3 57 +4 +4 1019.0 923.2
15 13.09 СЗ 7 н/о н/о +8.3 -0.4 54 +4 +4 1018.8 923.2
16 13.09 СЗ 4 н/о н/о +6.9 -0.1 61 +4 +4 1019.3 923.2
17 13.09 СЗ 5 н/о н/о +6.2 -0.7 61 +2 +2 1019.7 923.4
18 13.09 СЗ 4
{14}
н/о н/о +4.7 -0.3 70 +1 +1 1020.8 923.9 +9.9
19 13.09 СЗ 5 н/о н/о +4.2 -0.8 70 -0 -0 1021.5 924.3
20 13.09 З 4 н/о н/о +4.2 -0.8 70 0 0 1021.8 924.6
21 13.09 З 5 н/о н/о +3.8 -0.8 72 -1 -1 1021.9 924.6
22 13.09 З 6 н/о н/о +4.2 -0.8 70 -1 -1 1022.1 924.8
23 13.09 З 6 н/о н/о +4.0 -0.8 71 -1 -1 1022.3 925.0
00 14.09 Ю 2
{14}
н/о н/о +3.5 -0.9 73 +1 +1 1022.4 924.9
01 14.09 З 2
{4}
н/о н/о +3.1 -1.1 74 0 0 1022.4 924.7
02 14.09 СЗ 8
{13}
н/о н/о +4.6 -0.6 69 -1 -1 1021.7 924.6
03 14.09 СЗ 8 н/о н/о +4.5 -0.5 70 -1 -1 1021.6 924.5
04 14.09 ЮЗ 3
{12}
н/о н/о +4.8 -0.8 67 +2 +2 1021.6 924.6
05 14.09 З 5
{9}
н/о н/о +4.9 -0.5 68 +1 +1 1021.7 924.8
06 14.09 З 4
{14}
н/о н/о +5.0 -0.4 68 +1 +1 1021.8 924.9 +2.9
07 14.09 З 6 н/о н/о +5.6 -0.6 64 +1 +1 1021.5 924.8
08 14.09 З 4
{10}
н/о н/о +6.1 -0.2 64 +3 +3 1021.6 925.0
09 14.09 З 4
{7}
н/о н/о +7.6 -0.3 57 +5 +5 1020.8 924.8
10 14.09 З 3
{7}
н/о н/о +7.5 -0.9 55 +5 +5 1020.3 924.3
11 14.09 ЮЗ 5
{7}
н/о н/о +9.1 +0.6 55 +6 +6 1019.2 923.8
12 14.09 З 5
{10}
н/о н/о +9.0 +1.2 58 +6 +6 1018.1 922.8
13 14.09 ЮЗ 6
{9}
н/о н/о +7.9 +0.4 59 +4 +4 1018.0 922.3
14 14.09 ЮЗ 4
{10}
н/о н/о +7.7 +0.9 62 +5 +5 1016.3 920.7
15 14.09 Ю 5
{9}
н/о н/о +7.3 +2.2 70 +4 +4 1014.4 918.9
16 14.09 Ю 3
{8}
н/о н/о +6.5 +3.7 82 +3 +3 1013.4 917.8
17 14.09 Ю 6
{10}
н/о н/о +6.2 +3.9 85 +1 +1 1011.1 915.6
18 14.09 ЮЗ 9
{13}
н/о н/о +6.2 +1.9 74 +1 +1 1009.0 913.6 +5.1 +9.4
19 14.09 Ю 7
{16}
н/о н/о +6.0 +1.9 75 +1 +1 1007.2 912.0
20 14.09 ЮЗ 6
{13}
н/о н/о +5.7 +2.4 79 +1 +1 1005.5 910.3
21 14.09 ЮЗ 5
{11}
н/о н/о +5.7 +2.5 80 +1 +1 1004.6 909.5
22 14.09 ЮЗ 6
{12}
н/о н/о +5.4 +2.6 82 0 0 1004.1 909.0
23 14.09 ЮЗ 5
{7}
н/о н/о +4.4 +2.9 90 -1 -1 1003.5 908.1
00 15.09 ЮЗ 5
{16}
н/о н/о +5.0 +2.0 81 0 0 1001.3 906.3
01 15.09 ЮЗ 4
{9}
н/о н/о +4.6 +2.0 83 0 0 1000.2 905.2
02 15.09 ЮЗ 7
{11}
н/о н/о +4.8 +2.0 82 -1 -1 998.7 903.8
03 15.09 ЮЗ 4
{8}
н/о н/о +4.4 +0.7 77 0 0 998.3 903.4
04 15.09 З 2
{7}
н/о н/о +4.1 +0.3 76 +1 +1 998.2 903.2
05 15.09 ЮЗ 4
{6}
н/о н/о +2.9 +0.6 85 -2 -2 997.1 901.9
06 15.09 ЮЗ 5
{11}
н/о н/о +3.2 -1.0 74 -2 -2 996.3 901.2 +2.5 +6.5
07 15.09 З 6
{12}
н/о н/о +5.4 -1.5 61 +1 +1 994.5 900.3
08 15.09 З 10
{19}
н/о н/о +6.7 -1.4 56 +1 +1 994.1 900.4
09 15.09 З 6
{20}
н/о н/о +7.0 -0.4 59 +3 +3 993.5 899.9
10 15.09 З 8
{16}
н/о н/о +7.6 -0.3 57 +3 +3 992.6 899.3
11 15.09 З 7
{14}
н/о н/о +9.0 +0.5 55 +5 +5 992.2 899.3
12 15.09 З 8
{20}
н/о н/о +9.4 +1.1 56 +6 +6 992.0 899.3
13 15.09 З 7
{17}
н/о н/о +10.4 +1.0 52 +7 +7 992.0 899.6
14 15.09 СЗ 8
{14}
н/о н/о +8.4 +1.8 63 +4 +4 993.6 900.5
15 15.09 СЗ 7
{17}
н/о н/о +8.8 +1.7 61 +5 +5 993.5 900.4
16 15.09 З 8
{17}
н/о н/о +8.5 +1.4 61 +4 +4 993.9 900.8
17 15.09 СЗ 9
{15}
н/о н/о +7.7 +0.7 61 +3 +3 994.4 900.9
18 15.09 СЗ 4
{17}
н/о н/о +6.1 +0.9 69 +3 +3 996.1 902.0 +3.2 +10.9
19 15.09 СЗ 9
{13}
н/о н/о +6.3 +1.5 71 +1 +1 997.2 903.0
20 15.09 СЗ 9
{16}
н/о н/о +6.1 +1.3 71 +1 +1 997.9 903.6
21 15.09 СЗ 9
{14}
н/о н/о +6.4 +0.5 66 +1 +1 999.4 905.0
22 15.09 СЗ 11
{17}
н/о н/о +5.4 -0.2 67 -1 -1 1000.6 905.8
23 15.09 СЗ 11
{21}
н/о н/о +4.5 -1.3 66 -2 -2 1001.8 906.5
00 16.09 СЗ 8
{21}
н/о н/о +3.7 -2.7 63 -2 -2 1003.5 907.9
01 16.09 З 11
{17}
н/о н/о +3.7 -3.1 61 -3 -3 1003.6 907.9
02 16.09 СЗ 9
{15}
н/о н/о +3.3 -2.8 64 -3 -3 1003.8 908.1
03 16.09 З 8
{14}
н/о н/о +3.3 -2.6 65 -3 -3 1004.1 908.3
04 16.09 З 6
{16}
н/о н/о +3.2 -2.1 68 -2 -2 1004.5 908.6
05 16.09 СЗ 8
{13}
н/о н/о +3.1 -3.0 64 -3 -3 1004.6 908.7
06 16.09 СЗ 7
{17}
н/о н/о +3.2 -2.9 64 -3 -3 1004.9 909.0 +3.0 +6.4
07 16.09 СЗ 8
{12}
н/о н/о +3.8 -2.8 62 -2 -2 1005.5 909.7
08 16.09 З 8
{13}
н/о н/о +4.1 -3.2 59 -2 -2 1006.2 910.4
09 16.09 СЗ 10
{16}
н/о н/о +6.0 -3.9 49 +1 +1 1005.7 910.6
10 16.09 З 9
{16}
н/о н/о +6.4 -3.2 50 +1 +1 1006.0 911.0
11 16.09 З 7
{14}
н/о н/о +7.1 -2.6 50 +3 +3 1006.2 911.4
12 16.09 З 8
{16}
н/о н/о +7.5 -2.2 50 +3 +3 1006.4 911.7
13 16.09 З 5
{11}
н/о н/о +6.1 -2.0 56 +2 +2 1006.9 911.7
14 16.09 СЗ 6
{10}
н/о н/о +7.6 -1.1 54 +4 +4 1005.8 911.2
15 16.09 СЗ 6
{11}
н/о н/о +7.1 -1.8 53 +3 +3 1005.7 911.0
16 16.09 СЗ 4
{10}
н/о н/о +6.8 -1.1 57 +4 +4 1005.2 910.4
17 16.09 СЗ 4
{7}
н/о н/о +5.2 -0.6 66 +1 +1 1005.4 910.0
18 16.09 СЗ 8
{11}
н/о н/о +4.5 -2.1 62 -1 -1 1005.6 910.0 +3.2 +8.2
19 16.09 СЗ 6
{10}
н/о н/о +3.3 -2.8 64 -2 -2 1005.7 909.8
20 16.09 СЗ 4
{8}
н/о н/о +2.4 -3.1 67 -2 -2 1005.3 909.1
21 16.09 З 3
{6}
н/о н/о +2.3 -3.0 68 -2 -2 1004.8 908.6
22 16.09 СЗ 1
{7}
н/о н/о +1.5 -3.0 72 0 0 1005.0 908.5
23 16.09
{4}
н/о н/о +0.9 -3.0 75 1004.6 908.0
00 17.09 ЮВ 1
{10}
н/о н/о +1.2 -2.7 75 -0 -0 1004.1 907.6
01 17.09 СЗ 4
{6}
н/о н/о +1.5 -2.1 77 -3 -3 1003.4 907.1
02 17.09 СЗ 6
{9}
н/о н/о +1.4 -2.7 74 -5 -5 1003.2 906.9
03 17.09 СЗ 5
{9}
н/о н/о +0.9 -3.2 74 -5 -5 1003.2 906.7
04 17.09 СЗ 2
{6}
н/о н/о +0.3 -3.4 76 -3 -3 1003.5 906.8
05 17.09 СЗ 4
{6}
н/о н/о 0.0 -3.3 78 -5 -5 1003.6 906.7
06 17.09 СЗ 3
{9}
н/о н/о +0.4 -4.0 72 -4 -4 1004.1 907.3 0.0 +4.5
07 17.09 С 1
{3}
н/о н/о +0.4 -3.8 73 -1 -1 1004.9 908.0
08 17.09 СЗ 5
{7}
н/о н/о +2.1 -4.8 60 -3 -3 1005.2 908.9
09 17.09 СЗ 5
{8}
н/о н/о +4.2 -5.3 50 -0 -0 1005.1 909.5
10 17.09 СЗ 5
{8}
н/о н/о +5.7 -5.3 45 +2 +2 1005.2 910.1
11 17.09 СЗ 4
{9}
н/о н/о +5.6 -5.9 43 +2 +2 1005.9 910.7
12 17.09 СЗ 6
{9}
н/о н/о +6.8 -5.5 41 +3 +3 1006.2 911.3
13 17.09 СЗ 7
{10}
н/о н/о +7.5 -5.5 39 +4 +4 1006.4 911.7
14 17.09 СЗ 7
{12}
н/о н/о +6.8 -4.9 43 +3 +3 1007.2 912.2
15 17.09 СЗ 7
{11}
н/о н/о +6.9 -2.2 52 +3 +3 1007.9 912.9
16 17.09 СЗ 8
{12}
н/о н/о +5.5 -1.6 60 0 0 1009.1 913.6
17 17.09 СЗ 6
{10}
н/о н/о +4.5 -1.3 66 -0 -0 1010.0 914.1
18 17.09 СЗ 4
{12}
н/о н/о +4.0 -1.1 69 -0 -0 1011.1 914.9 +0.1 +7.9
19 17.09 СЗ 4
{7}
н/о н/о +3.5 -1.2 71 -1 -1 1012.1 915.6
20 17.09 СЗ 5
{7}
н/о н/о +4.0 -1.1 69 -1 -1 1012.3 915.9
21 17.09 СЗ 6
{9}
н/о н/о +4.1 -1.9 65 -1 -1 1012.7 916.3
22 17.09 СЗ 5
{8}
н/о н/о +4.1 -1.9 65 -1 -1 1013.2 916.7
23 17.09 СЗ 5
{8}
н/о н/о +3.6 -1.5 69 -1 -1 1013.9 917.3
00 18.09 СЗ 5
{9}
н/о н/о +3.6 -1.9 67 -1 -1 1014.3 917.6
01 18.09 СЗ 4
{8}
н/о н/о +3.4 -2.1 67 -1 -1 1014.6 917.8
02 18.09 СЗ 3
{7}
н/о н/о +3.2 -2.5 66 -0 -0 1015.0 918.2
03 18.09 СЗ 1
{6}
н/о н/о +1.8 -2.7 72 0 0 1016.0 918.6
04 18.09 З 1
{3}
н/о н/о +1.9 -2.6 72 0 0 1016.4 918.9
05 18.09 СЗ 2
{3}
н/о н/о +1.4 -2.5 75 -2 -2 1017.0 919.4
06 18.09 СЗ 2
{8}
н/о н/о +2.2 -2.1 73 -1 -1 1017.5 920.0 +1.4 +4.3
07 18.09 СЗ 5
{7}
н/о н/о +4.4 -1.8 64 -0 -0 1017.2 920.5
08 18.09 СЗ 3
{8}
н/о н/о +4.5 -1.7 64 +1 +1 1017.8 921.0
09 18.09 СЗ 5
{8}
н/о н/о +5.6 -2.2 57 +2 +2 1017.7 921.4
10 18.09 СЗ 5
{8}
н/о н/о +5.8 -3.5 51 +2 +2 1018.0 921.7
11 18.09 СЗ 5
{9}
н/о н/о +6.5 -3.7 48 +3 +3 1018.1 922.0
12 18.09 СЗ 6
{9}
н/о н/о +8.0 -3.8 43 +5 +5 1017.8 922.2
13 18.09 СЗ 8
{11}
н/о н/о +8.4 -3.4 43 +4 +4 1018.0 922.5
14 18.09 СЗ 9
{13}
н/о н/о +8.0 -3.5 44 +4 +4 1018.6 922.9
15 18.09 СЗ 6
{12}
н/о н/о +7.3 -3.2 47 +4 +4 1019.2 923.2
16 18.09 СЗ 8
{13}
н/о н/о +6.5 -3.7 48 +2 +2 1019.7 923.4
17 18.09 СЗ 7
{11}
н/о н/о +5.3 -3.5 53 +1 +1 1020.6 923.9

 

Местоположение метеостанции Фагернес аэропорт (Норвегия): широта 61.01 долгота 9.30 высота над уровнем моря 822 м.

В архиве по умолчанию представлена погода в Фагернес аэропорту за последнюю неделю. Архивные данные за месяц целиком и за предыдущие месяцы, начиная с января 2011 года, Вы можете получить, выбрав интересующий диапазон дат из раскрывающегося списка и нажав кнопку "Ввод!".


*Определитесь, кто Вы:
робот инопланетянин человек

Внимание! Время в таблицах - всемирное. Для получения местного времени необходимо прибавить поправку, которая равна 1 ч.

Смотрите также архив погоды в соседних городах и на ближайших метеорологических станциях:

Погода в Фагернесе (Норвегия) (4 км)
Погода в Локен и Волбу (Норвегия) (18 км)
Погода в Бейтостолене (Норвегия) (34 км)
Погода в Вест-Торпе (Норвегия) (40 км)
Погода в Хемседале II (Норвегия) (42 км)
Погода в Хемседале (Норвегия) (45 км)
Погода в Несбен-Тодокке (Норвегия) (50 км)
Погода в Скабу (Норвегия) (58 км)
Погода в Лиллехаммере (Норвегия) (64 км)
Погода в Филефеле (Норвегия) (67 км)

Пояснения к столбцам:

Ветер - указаны скорость ветра в м/с - средняя за 10 мин, порывы в срок и между сроками (в фигурных скобках) и направление, откуда дует ветер: С - северный, СВ - северо-восточный, В - восточный, ЮВ - юго-восточный, Ю - южный, ЮЗ - юго-западный, З - западный, СЗ - северо-западный.
Видимость - горизонтальная дальность видимости в метрах или километрах. При видимости от 1 до 10 км при отсутствии осадков обычно наблюдается дымка, при ухудшении видимости до 1 км и менее - туман. В сухую погоду видимость может ухудшаться дымом, пылью или мглою.
Явления - указаны атмосферные явления, наблюдавшиеся в срок или в последний час перед сроком; фигурными скобками обозначены явления, наблюдавшиеся между сроками (за 1-3 часа до срока); квадратными скобками обозначены град или гололедные отложения с указанием их диаметра в мм.
Облачность - указаны через наклонную черту общая и нижняя облачность в баллах и высота нижней границы облаков в метрах; квадратными скобками обозначены формы облаков: Ci - перистые, Cs - перисто-слоистые, Cc - перисто-кучевые, Ac - высококучевые, As - высокослоистые, Sc - слоисто-кучевые, Ns - слоисто-дождевые, Cu - кучевые, Cb - кучево-дождевые. Подробнее классификацию облаков см. в Атласе облаков (PDF).
T - Температура воздуха - температура, измеренная на высоте 2 м над землей.
Td - Температура точки росы - температура, при понижении до которой содержащийся в воздухе водяной пар достигнет насыщения.
f - Относительная влажность воздуха - влажноcть воздуха, измеренная на высоте 2 м над землей.
Te - Эффективная температура - температура, которую ощущает одетый по сезону человек в тени. Характеристика душности погоды. При расчете учитывается влияние влажности воздуха и скорости ветра на теплоощущения человека.
Tes - Эффективная температура на солнце - температура, которую ощущает человек, с поправкой на солнечный нагрев. Характеристика знойности погоды. Зависит от высоты солнца над горизонтом, облачности и скорости ветра. Ночью, в пасмурную погоду, а также при ветре 12 м/с и более поправка равна нулю.
P - Атмосферное давление - приведенное к уровню моря атмосферное давление.
Po - Атмосферное давление - измеренное на уровне метеостанции атмосферное давление.
Tmin - Минимальная температура - минимум температуры воздуха на высоте 2 м над землей.
Tmax - Максимальная температура - максимум температуры воздуха на высоте 2 м над землей.
R - Количество осадков - Количество выпавших осадков за период времени, мм. При наведении курсора мыши на число - период времени, за который выпало указанное количество осадков.
R24 - Количество осадков - Количество выпавших осадков за 24 часа, мм.
S - Снежный покров - Высота снежного покрова, см. При наведении курсора мыши на число - состояние снежного покрова и степень покрытия местности в баллах.